Hourly Data Report for April 20, 2018

MIRAMICHI RCS
NEW BRUNSWICK
Current Station Operator: ECCC - MSC

47°00'34.000" N
65°27'54.000" W
33.00 m
8100989
71744
ACQ

Download Data

Hourly Data (April 2018)
Hourly Data Report for April 20, 2018
TIME
LST
Temp Definition
°C
Dew Point Definition
°C
Rel Hum Definition
%
Precip. Amount Definition
mm

Wind Dir Definition
10's deg

Wind Spd Definition
km/h
Visibility Definition
km
Stn Press Definition
kPa
Hmdx Definition


Wind Chill Definition


Weather Definition


00:00 0.0 -0.5 97 0.0 5 11   100.22   -4 LegendNANA
01:00 0.0 -1.0 93 0.0 3 10   100.22   -3 LegendNANA
02:00 -0.1 -1.4 90 0.0 3 12   100.23   -4 LegendNANA
03:00 -0.1 -1.5 90 0.0 3 8   100.26   -3 LegendNANA
04:00 -0.2 -1.5 91 0.0 2 9   100.25   -3 LegendNANA
05:00 -0.4 -1.5 92 0.0 3 7   100.28   -3 LegendNANA
06:00 -0.3 -1.4 92 0.0 3 9   100.31   -3 LegendNANA
07:00 0.2 -0.9 92 0.2 1 7   100.37     LegendNANA
08:00 0.8 -1.1 87 0.0 2 11   100.43     LegendNANA
09:00 0.8 -0.7 90 0.0 3 11   100.49     LegendNANA
10:00 1.1 -0.2 91 0.6 3 14   100.57     LegendNANA
11:00 1.5 -0.1 89 0.5 4 15   100.64     LegendNANA
12:00 1.6 -0.7 85 0.2 4 16   100.69     LegendNANA
13:00 1.7 0.0 88 0.3 3 15   100.74     LegendNANA
14:00 2.4 -0.4 82 0.2 4 13   100.78     LegendNANA
15:00 1.6 -0.3 87 0.0 9 17   100.80     LegendNANA
16:00 1.9 -0.2 86 0.0 9 9   100.85     LegendNANA
17:00 1.8 -0.2 87 0.0 10 7   100.86     LegendNANA
18:00 2.0 -0.1 86 0.0 7 1   100.90     LegendNANA
19:00 0.8 0.0 94 0.6 34 2   100.97     LegendNANA
20:00 -0.1 -0.7 96 0.8 8 5   101.07   -2 LegendNANA
21:00 -0.2 -0.8 96 0.0 3 3   101.13   -1 LegendNANA
22:00 -0.5 -1.1 95 0.3   0   101.15     LegendNANA
23:00 -0.6 -1.1 96 0.0 23 4   101.17   -2 LegendNANA

Notes on Data Quality.

Legend

  • E = Estimated
  • M = Missing
  • NA = Not Available*
  • [empty] = Indicates an unobserved value
Date modified: